Torna al catalogo

BREEZE-M R/B

AttivoHEO
NORAD 37186·ROCKET BODY·🇷🇺 Russia

Lanciato Oct 14, 2010 da Baikonur Cosmodrome

Loading…

Prossimi Passaggi (prossime 24 ore)

TLE

AggiornatoSource: Space-Track

Epoca: Sep 14, 2026, 22:09 UTC

1 37186U 10053B   26257.92321409 -.00000083  00000-0  00000-0 0  9998
2 37186  22.4635 284.4068 6054790 163.9542 226.8760  2.17043176126193

Traccia BREEZE-M R/B in tempo reale con AllMySat

Download on the App Store